Preview of NWS' New Version of Forecast
This preview is not operational and should not be used for support decisions.
Latest weather observations around

Birmingham, Birmingham International Airport (KBHM)

Using International System of Units (Switch to English Units)
Date/ Time (CDT) Wind (kph) Vis. (km) Weather Sky Cond. Temp (°C) Rel. Humidity Wind Chill (°C) Heat Index (°C) Pressure Precip. (cm)
Air Dwpt 6 hour Altimeter (hPa) Sea level (hPa) 1 hr 3 hr 6 hr
Max Min
May 26 02:53 ESE 8 12.87 Cloudy OVC012 22 21     96%   22 1013.6 1012.9      
May 26 02:18 SE 5 12.87 Cloudy OVC010 22 21     96%   22 1013.9        
May 26 01:53 Calm 11.27 Mostly Cloudy BKN009 BKN013 22 21     96%   22 1013.9 1013.1      
May 26 01:23 SE 5 14.48 Mostly Cloudy FEW008 BKN011 BKN120 21 21     100%     1014.2        
May 26 00:53 Calm 14.48 Cloudy OVC009 21 21     97%     1014.6 1013.5     0
May 26 00:44 Calm 14.48 Cloudy OVC009 21 21     97%     1014.6        
May 26 00:00 Calm 14.48 Cloudy OVC010 21 21     97%     1014.9        
May 25 23:53 Calm 12.87 Mostly Clear FEW100 21 21     97%     1014.9 1014.1      
May 25 22:53 Calm 14.48 Mostly Clear FEW100 21 21     100%     1014.6 1013.9      
May 25 21:53 Calm 16.09 Mostly Cloudy BKN100 21 21     97%     1015.6 1014.7   0  
May 25 20:53 Calm 16.09 Mostly Cloudy BKN110 21 21     100%     1015.6 1014.7 0    
May 25 19:53 Calm 16.09 Mostly Cloudy FEW065 FEW120 BKN250 21 21     97%     1015.2 1014.4      
May 25 18:53 S 5 16.09 Cloudy SCT110 OVC250 21 20     93%     1014.6 1013.9     2
May 25 17:53 E 5 16.09 Mostly Cloudy FEW095 SCT120 BKN250 21 21     97%     1013.9 1013.2 0    
May 25 16:53 S 5 9.66 Light Rain and Fog/Mist FEW050 BKN110 21 19     93%     1014.2 1013.6 0    
May 25 16:36 SW 8 8.05 Light Rain and Fog/Mist FEW047 SCT090 OVC110 21 20     96%     1014.6   0    
May 25 15:53 SW 9 6.44 Thunderstorms and Rain and Fog/Mist SCT045 SCT090 OVC110 21 20     93%     1015.9 1015.2 2 2  
May 25 15:43 SW 11 4.83 Thunderstorms and Rain and Fog/Mist BKN039 BKN080 OVC100 21 21     97%     1015.9   2    
May 25 14:53   3.22 Thunderstorms and Heavy Rain and Fog/Mist BKN034 OVC043 23 21     87%   23 1015.2 1014.6 0    
May 25 14:19 SSW 5 16.09 Thunderstorms FEW043 SCT050 BKN120 29 20     57%   31 1014.9        
May 25 14:05 S 8 16.09 Mostly Cloudy FEW050 FEW070 BKN120 30 21     57%   32 1014.9        
May 25 13:53 5 16.09 Mostly Cloudy SCT050 BKN120 BKN250 29 20     57%   31 1015.2 1014.2      
May 25 12:53 5 16.09 Mostly Cloudy SCT040 SCT080 BKN250 31 20     53%   33 1016.3 1015.3      
May 25 11:53 Calm 16.09 Mostly Cloudy SCT034 SCT080 BKN250 29 21     59%   32 1017.3 1016.3      
May 25 10:53 ESE 9 16.09 Clear CLR 28 21     63%   30 1018 1017      
May 25 09:53 8 16.09 Mostly Cloudy FEW040 FEW080 BKN250 27 21     67%   29 1018.3 1017.3      
May 25 08:53 E 8 16.09 Mostly Cloudy FEW040 FEW080 BKN250 26 20     71%   26 1018.3 1017.7      
May 25 07:53 Calm 16.09 Mostly Cloudy SCT040 BKN250 24 21     82%   24 1018.3 1017.6      
May 25 06:53 Calm 14.48 Mostly Cloudy FEW043 SCT070 BKN250 21 20     93%     1018.3 1017.6      
May 25 05:53 Calm 14.48 Mostly Cloudy SCT045 BKN060 20 19     96%     1018 1017.1      
May 25 04:53 Calm 12.87 Mostly Clear FEW060 20 19     96%     1017.6 1016.8      
May 25 03:53 E 5 14.48 Mostly Clear FEW060 20 19     96%     1017.3 1016.5      
May 25 02:53 Calm 16.09 Partly Cloudy SCT060 20 19     96%     1017.6 1016.9      
May 25 01:53 Calm 16.09 Mostly Clear FEW055 21 20     96%     1018 1017.1      
May 25 00:53 Calm 16.09 Mostly Clear FEW055 21 20     96%     1018.6 1017.7      
May 24 23:53 Calm 16.09 Partly Cloudy FEW055 SCT120 22 20     87%   23 1019.3 1018.4      
May 24 22:53 Calm 16.09 Mostly Cloudy BKN120 21 20     93%     1019.7 1018.7      
May 24 21:53 Calm 16.09 Partly Cloudy FEW120 SCT250 21 20     93%     1019.7 1018.6      
May 24 20:53 Calm 16.09 Mostly Cloudy SCT120 BKN250 21 19     90%     1018.3 1017.5      
May 24 19:53 Calm 16.09 Cloudy SCT120 OVC250 23 19     79%   23 1017.6 1016.7      
May 24 18:53 SW 13 16.09 Cloudy SCT100 OVC250 24 19     76%   24 1018 1017      
May 24 17:53   16.09 Cloudy FEW070 OVC250 26 19     67%   26 1018 1017      
May 24 16:53 SSE 11 16.09 Cloudy FEW060 OVC250 27 21     69%   29 1018 1017      
May 24 15:53 Calm 16.09 Mostly Cloudy SCT055 BKN250 28 21     65%   30 1017.6 1016.7      
May 24 14:53 SE 8 16.09 Mostly Cloudy SCT050 BKN250 27 21     67%   29 1018.3 1017.3      
May 24 13:53 SE 8 16.09 Mostly Cloudy SCT050 BKN250 28 22     69%   30 1018.6 1017.6      
May 24 13:19 ESE 9 16.09 Mostly Cloudy SCT050 BKN100 BKN250 26 21     76%   26 1019        
May 24 12:53 ENE 8 16.09 Mostly Cloudy SCT050 BKN100 BKN250 27 21     69%   29 1019.3 1018.3 0   0
May 24 12:48 ENE 5 16.09 Mostly Cloudy SCT050 BKN100 BKN250 27 21     70%   29 1019.3   0    
May 24 11:53 E 17 16.09 Thunderstorms FEW039 SCT050 BKN100 BKN250 28 22     69%   30 1020 1018.9      
May 24 11:44 ESE 8 16.09 Thunderstorms FEW039 SCT050 BKN100 28 21     63%   30 1019.7        
May 24 10:53 W 5 16.09 Mostly Clear FEW037 FEW047 FEW065 29 21     59%   32 1020.3 1019.2      
May 24 09:53 Calm 16.09 Mostly Cloudy FEW023 BKN250 28 22     72%   30 1020.3 1019.3      
May 24 08:53 Calm 9.66 Fog/Mist FEW003 BKN250 23 22     94%   24 1020.7 1019.7      
May 24 08:21 Calm 6.44 Fog/Mist SCT003 BKN250 23 22     96%   24 1020.3        
May 24 07:53 Calm 3.22 Fog/Mist BKN001 22 22     100%   23 1020.3 1019.4      
May 24 07:41 Calm 3.22 Fog/Mist OVC001 22 22     97%   23 1020.3        
May 24 07:27 Calm 1.21 Fog/Mist OVC001 22 22     100%   23 1020        
May 24 07:20 Calm 0.8 Fog VV002 22 22     100%   23 1020        
May 24 06:53 Calm 0.4 Fog VV002 22 22     100%   23 1019.7 1018.9      
May 24 06:51 Calm 0.4 Fog VV002 22 22     100%   23 1019.7        
May 24 06:37 Calm 0.4 Fog VV002 22 22     100%   23 1019.7        
May 24 05:58 Calm 0.4 Fog OVC002 22 22     100%   23 1019.3        
May 24 05:51 Calm 0.8 Fog OVC003 22 22     100%   23 1019.3 1018.4      
May 24 05:50 Calm 0.8 Fog OVC003 22 22     100%   23 1019.3        
May 24 04:53 Calm 16.09 Mostly Cloudy BKN006 21 21     97%     1019 1018      
May 24 04:45 Calm 14.48 Partly Cloudy SCT006 21 20     96%     1019        
May 24 03:53 Calm 14.48 Mostly Clear FEW250 21 21     100%     1018.6 1017.6      
May 24 02:53 Calm 16.09 Mostly Clear FEW250 22 21     96%   22 1018.6 1017.6      
May 24 01:53 Calm 16.09 Mostly Clear FEW250 22 21     96%   22 1018.6 1017.9      
May 24 00:53 Calm 16.09 Clear CLR 22 22     100%   23 1019 1018.2      
May 23 23:53 Calm 16.09 Clear CLR 23 21     90%   23 1019.3 1018.5      
May 23 22:53 Calm 16.09 Mostly Clear FEW250 23 22     94%   24 1019.7 1018.9      
May 23 21:53 Calm 16.09 Partly Cloudy SCT250 24 22     88%   25 1019.7 1018.9      
May 23 20:53 W 8 16.09 Mostly Cloudy SCT150 BKN250 24 22     88%   25 1019.3 1018.4      
May 23 19:53 WNW 9 16.09 Cloudy SCT150 OVC250 26 22     82%   26 1018.3 1017.4      
May 23 18:53 Calm 16.09 Cloudy SCT150 OVC250 28 21     67%   30 1018 1017      
May 23 17:53 Calm 16.09 Mostly Cloudy SCT150 BKN250 28 20     63%   29 1017.3 1016.5      
May 23 16:53 Calm 16.09 Cloudy FEW030 OVC250 28 21     65%   30 1018 1017.2      
May 23 15:53 Calm 16.09 Cloudy FEW030 OVC250 28 21     65%   30 1018.6 1017.9      
May 23 14:53 ESE 11 16.09 Cloudy FEW035 OVC250 27 21     69%   28 1018.6 1017.9      
May 23 14:01 NE 13 16.09 Clear CLR 29 20     59%   31 1019        
May 23 13:53 N 17 16.09 Thunderstorms FEW037 BKN250 29 19     55%   31 1019 1017.8      
May 23 13:46 NNE 17 16.09 Thunderstorms FEW037 BKN250 29 19     55%   31 1019        
May 23 13:38 NNE 11 16.09 Mostly Cloudy FEW037 BKN250 29 21     59%   32 1019        
May 23 12:53 N 13 16.09 Mostly Cloudy FEW037 BKN250 28 22     67%   31 1019.3 1018.5      
May 23 12:15 N 11 16.09 Mostly Cloudy FEW027 SCT037 BKN250 27 21     69%   29 1019.7        
May 23 11:53 N 11 16.09 Mostly Cloudy SCT027 SCT037 BKN070 BKN250 27 21     67%   29 1020 1019.1      
May 23 11:49 NNE 11 16.09 Mostly Cloudy SCT027 SCT037 BKN070 BKN250 27 21     70%   29 1020        
May 23 11:23 N 13 16.09 Mostly Cloudy SCT027 SCT037 BKN070 BKN250 28 21     67%   30 1020.3        
May 23 10:53 NNW 5 16.09 Mostly Cloudy BKN021 BKN250 27 22     72%   29 1020.3 1019.5      
May 23 10:24 SSE 5 16.09 Cloudy SCT017 BKN025 OVC060 26 22     79%   28 1020.3        
May 23 09:56 SE 5 16.09 Mostly Cloudy SCT021 SCT029 BKN065 26 22     79%   28 1020.3        
May 23 09:53 Calm 16.09 Mostly Cloudy FEW019 BKN024 BKN250 26 22     79%   28 1020.3 1019.5      
May 23 09:15 SSE 9 16.09 Mostly Cloudy SCT017 BKN023 25 22     84%   26 1020.3        
May 23 08:53 SSE 5 16.09 Mostly Cloudy SCT009 BKN250 25 22     84%   26 1020.3 1019.4      
May 23 08:38 Calm 16.09 Mostly Cloudy SCT009 BKN250 25 22     84%   26 1020.3        
May 23 08:31 Calm 16.09 Mostly Cloudy BKN009 BKN250 24 22     88%   25 1020        
May 23 08:10 Calm 16.09 Mostly Cloudy FEW008 BKN250 24 22     88%   25 1020        
May 23 07:53 Calm 16.09 Mostly Cloudy BKN250 24 22     85%   25 1019.7 1018.9      
May 23 06:53 Calm 16.09 Mostly Cloudy BKN250 22 21     96%   22 1019.7 1018.6      
May 23 05:53 Calm 16.09 Mostly Clear FEW250 21 21     97%     1019 1017.9      
May 23 04:53 Calm 16.09 Clear CLR 22 21     93%   22 1018 1017      
May 23 03:53 Calm 16.09 Clear CLR 22 21     96%   22 1017.6 1016.6      
May 23 02:53 NE 5 16.09 Partly Cloudy SCT022 22 21     93%   23 1017.6 1016.7      
May 23 02:42 Calm 16.09 Partly Cloudy SCT022 22 21     93%   23 1017.6        
May 23 02:32 Calm 16.09 Mostly Cloudy BKN022 22 21     93%   23 1017.6        
May 23 01:53 Calm 16.09 Clear CLR 22 21     93%   23 1017.3 1016.5      
May 23 00:53 Calm 16.09 Clear CLR 23 21     90%   23 1017.6 1016.8      
May 22 23:53 Calm 16.09 Clear CLR 23 22     94%   24 1018.3 1017.5      
May 22 22:53 Calm 16.09 Mostly Clear FEW027 23 22     94%   24 1018.3 1017.5      
May 22 22:14 Calm 16.09 Partly Cloudy SCT027 23 22     91%   24 1018.3        
May 22 21:53 Calm 16.09 Mostly Cloudy BKN026 24 22     90%   25 1018.3 1017.3      
May 22 21:33 Calm 16.09 Mostly Cloudy BKN026 24 22     90%   25 1018        
May 22 20:53 Calm 16.09 Partly Cloudy SCT250 24 22     90%   25 1017.3 1016.6      
May 22 19:53 Calm 16.09 Partly Cloudy SCT250 24 22     85%   25 1016.9 1016.2      
May 22 18:53 ESE 8 16.09 Mostly Cloudy FEW026 BKN250 26 21     74%   28 1016.6 1015.6     2
May 22 18:25 ESE 8 16.09 Mostly Cloudy FEW027 BKN250 27 22     74%   29 1016.3        
May 22 17:53 SE 13 16.09 Mostly Cloudy SCT023 BKN027 BKN250 27 22     74%   29 1016.3 1015.4      
May 22 16:35 E 11 16.09 Mostly Cloudy FEW017 SCT060 BKN250 28 22     69%   30 1016.3        
May 22 16:15 E 8 16.09 Thunderstorms FEW030 SCT065 BKN250 27 22     74%   29 1016.6        
May 22 15:53 E 8 16.09 Mostly Cloudy FEW030 SCT065 BKN250 27 23     79%   29 1016.6 1015.6 1 2  
May 13 22:53 Calm 16.09 Clear CLR 23 18     73%   23 1019 1018      
May 13 16:53 NNW 11 16.09 Mostly Clear FEW065 33 14     33%   32 1018 1017      
May 13 13:53 9 16.09 Mostly Clear FEW065 32 16     38%   32 1020 1019.2      
May 12 16:53 S 11 16.09 Mostly Clear FEW250 32 12     29%   30 1019.3 1018.5      
May 12 08:53 Calm 16.09 Clear CLR 26 14     50%   26 1022.7 1021.8      
May 12 03:53 Calm 16.09 Clear CLR 18 15     84%     1020.3 1019.4      
May 11 20:53 SSE 5 16.09 Clear CLR 26 14     50%   26 1019.7 1018.6      
Jun 12 03:53 SSE 8 16.09 Mostly Clear FEW040 23 22     91%   24 1021 1020.2      
Jun 11 23:53 SSE 8 16.09 Mostly Clear FEW050 26 21     74%   28 1021 1019.9      
Jun 11 07:53 SE 15 16.09 Partly Cloudy SCT065 SCT250 24 19     74%   24 1021.7 1020.7      
Jun 10 13:53 ESE 15 16.09 Mostly Cloudy SCT060 BKN075 30 14     39%   30 1019 1018      
Jun 10 11:53 5 16.09 Partly Cloudy SCT070 28        %     1019.7 1018.9      
Jun 08 22:53 Calm 16.09 Clear CLR 20 15     73%     1014.2 1013.4      
Jun 08 20:53 N 11 16.09 Mostly Clear FEW250 21 14     66%     1012.9 1012.2      
Jun 07 18:53   16.09 Mostly Clear FEW065 FEW250 26 12     42%   26 1011.5 1010.7      
Jun 06 03:11 NE 8 16.09 Mostly Cloudy FEW007 FEW022 BKN028 22 21     96%   22 1009.5        
Jun 06 02:53 NNE 8 16.09 Partly Cloudy SCT120 22 21     96%   22 1009.5 1008.5      
Jun 05 19:53 Calm 16.09 Light Rain FEW020 SCT120 OVC250 22 21     93%   23 1009.8 1009.1 0    
Jun 05 14:53 Calm 16.09 Cloudy BKN065 BKN100 OVC250 24 21     84%   25 1010.5 1009.8 0